Location: Dürabuch
(48.2640°N, 11.2185°E)
Time: 21:48:03
(UTC+00:00)

Cosmos 1741 Rocket - Pass Details

Date: 23 May 2024
Orbit: 758 x 781 km, 74.0° (Epoch: 14 June)

Event Time Altitude Azimuth Distance (km) Brightness Sun altitude
Exits shadow 01:51:21 17° 224° (SW) 1,839 5.3 -12.4°
Maximum altitude 01:55:13 55° 298° (WNW) 925 4.4 -12.0°
Drops below altitude 10° 02:00:23 10° 16° (NNE) 2,324 7.6 -11.5°
Sets 02:02:50 0° 21° (NNE) 3,259 8.8 -11.2°
